Simultaneous Nadir Overpasses (SNOs) Predictions

Prediction of SNOs between GOES-17 and FY3D Satellite Orbit:

Table of predicted SNOs for the next 14.0 days since TLE Epoch: 9/7/2024
Index Date Time (GOES-17) GOES-17 Lat,Lon FY3D Lat,Lon Distance(km) Time Diff (sec)
1 09/07/2024 09:27:30 -0.01,-104.71 -0.49,-102.68 231.69 80
2 09/08/2024 21:49:39 0.01,-104.70 -0.71,-108.00 375.13 80
3 09/09/2024 21:33:41 0.01,-104.70 0.28,-103.48 139.73 80
4 09/11/2024 09:55:40 -0.02,-104.71 0.91,-108.75 461.31 80
5 09/12/2024 09:34:23 -0.02,-104.70 -0.15,-104.24 53.13 80
6 09/14/2024 21:37:53 0.03,-104.69 -0.06,-105.03 39.79 80
7 09/15/2024 21:21:55 0.03,-104.68 0.96,-100.52 475.12 80
8 09/17/2024 09:43:53 -0.03,-104.69 0.25,-105.78 125.24 80
9 09/18/2024 09:22:35 -0.03,-104.69 -0.78,-101.27 389.66 80
10 09/19/2024 21:44:43 0.03,-104.67 -0.39,-106.58 217.45 80
11 09/20/2024 21:28:45 0.03,-104.67 0.65,-102.07 297.76 80
